Weather History for Red Oak, IA

Change the Weather History Date:

Tuesday, October 30, 2012

  Actual Average Record
Temperature  
Mean Temperature 45 °F -  
Max Temperature 55 °F 58 °F 80 °F (1950)
Min Temperature 35 °F 38 °F 20 °F (1988)
Degree Days  
Heating Degree Days 20    
Moisture  
Dew Point 28 °F    
Average Humidity 55    
Maximum Humidity 75    
Minimum Humidity 23    
Precipitation  
Precipitation 0.00 in - - ()
Sea Level Pressure  
Sea Level Pressure 30.08 in    
Wind  
Wind Speed 4 mph (ENE)    
Max Wind Speed 9 mph    
Max Gust Speed 9 mph    
Visibility 10 miles    
Events      
Averages and records for this station are not official NWS values.
T = Trace of Precipitation, MM = Missing Value Source: NWS Daily Summary

Daily Weather History Graph

Daily Weather History Graph

Search for Another Location

Airport:

Trip Planner

Search our weather history database for the weather conditions in past years. The results will help you decide how hot, cold, wet, or windy it might be!

Date:

Astronomy

Oct. 30, 2012 Rise Set
Actual Time 7:50 AM CDT 6:18 PM CDT
Civil Twilight 7:21 AM CDT 6:47 PM CDT
Nautical Twilight 6:49 AM CDT 7:19 PM CDT
Astronomical Twilight 6:17 AM CDT 7:51 PM CDT
Moon 6:48 PM CDT (10/30) 8:38 AM CDT (10/30)
Length of Visible Light 11h 25m
Length of Day
10h 28m
Full, 99% of the Moon is Illuminated
Oct 30
Full
Nov 6
Last Quarter
Nov 13
New
Nov 20
First Quarter
Nov 28
Full

Hourly Weather History & Observations

Time (CDT) Temp. Windchill Dew Point Humidity Pressure Visibility Wind Dir Wind Speed Gust Speed Precip Events Conditions
12:15 AM 41.0 °F 38.0 °F 30.2 °F 65% 30.15 in 10.0 mi SE 4.6 mph - N/A   Clear
12:35 AM 39.2 °F 37.0 °F 30.2 °F 70% 30.14 in 10.0 mi SSE 3.5 mph - N/A   Clear
12:55 AM 39.2 °F 35.9 °F 30.2 °F 70% 30.14 in 10.0 mi SE 4.6 mph - N/A   Clear
1:15 AM 39.2 °F 37.0 °F 30.2 °F 70% 30.14 in 10.0 mi ESE 3.5 mph - N/A   Clear
1:35 AM 39.2 °F 35.9 °F 30.2 °F 70% 30.14 in 10.0 mi East 4.6 mph - N/A   Clear
2:35 AM 37.4 °F 34.9 °F 30.2 °F 75% 30.12 in 10.0 mi ESE 3.5 mph - N/A   Clear
2:55 AM 37.4 °F 33.8 °F 30.2 °F 75% 30.12 in 10.0 mi ESE 4.6 mph - N/A   Clear
3:15 AM 37.4 °F 33.8 °F 30.2 °F 75% 30.11 in 10.0 mi ESE 4.6 mph - N/A   Clear
3:55 AM 37.4 °F 33.8 °F 30.2 °F 75% 30.10 in 10.0 mi ESE 4.6 mph - N/A   Clear
4:15 AM 37.4 °F - 30.2 °F 75% 30.10 in 10.0 mi Calm Calm - N/A   Clear
4:35 AM 37.4 °F - 30.2 °F 75% 30.10 in 10.0 mi Calm Calm - N/A   Clear
4:55 AM 37.4 °F 33.8 °F 28.4 °F 70% 30.10 in 10.0 mi East 4.6 mph - N/A   Clear
5:15 AM 37.4 °F - 30.2 °F 75% 30.11 in 10.0 mi Calm Calm - N/A   Clear
5:35 AM 37.4 °F 34.9 °F 28.4 °F 70% 30.11 in 10.0 mi ENE 3.5 mph - N/A   Clear
5:55 AM 35.6 °F - 28.4 °F 75% 30.10 in 10.0 mi Calm Calm - N/A   Clear
6:15 AM 37.4 °F 33.8 °F 30.2 °F 75% 30.09 in 10.0 mi East 4.6 mph - N/A   Clear
6:35 AM 37.4 °F - 30.2 °F 75% 30.10 in 10.0 mi Calm Calm - N/A   Clear
7:15 AM 37.4 °F - 30.2 °F 75% 30.09 in 10.0 mi Calm Calm - N/A   Clear
7:35 AM 39.2 °F 37.0 °F 30.2 °F 70% 30.09 in 10.0 mi ENE 3.5 mph - N/A   Clear
7:55 AM 37.4 °F 34.9 °F 30.2 °F 75% 30.09 in 10.0 mi ENE 3.5 mph - N/A   Clear
8:15 AM 39.2 °F 35.9 °F 30.2 °F 70% 30.10 in 10.0 mi ENE 4.6 mph - N/A   Clear
8:35 AM 39.2 °F 35.9 °F 30.2 °F 70% 30.10 in 10.0 mi ENE 4.6 mph - N/A   Scattered Clouds
8:55 AM 39.2 °F 35.9 °F 30.2 °F 70% 30.10 in 10.0 mi ENE 4.6 mph - N/A   Scattered Clouds
9:15 AM 41.0 °F 38.0 °F 30.2 °F 65% 30.10 in 10.0 mi East 4.6 mph - N/A   Scattered Clouds
9:35 AM 42.8 °F 40.1 °F 30.2 °F 61% 30.10 in 10.0 mi ENE 4.6 mph - N/A   Scattered Clouds
9:55 AM 44.6 °F 40.7 °F 30.2 °F 57% 30.10 in 10.0 mi East 6.9 mph - N/A   Mostly Cloudy
10:15 AM 46.4 °F 43.5 °F 28.4 °F 50% 30.10 in 10.0 mi East 5.8 mph - N/A   Mostly Cloudy
10:35 AM 46.4 °F 43.5 °F 30.2 °F 53% 30.10 in 10.0 mi East 5.8 mph - N/A   Overcast
10:55 AM 46.4 °F 42.9 °F 28.4 °F 50% 30.10 in 10.0 mi East 6.9 mph - N/A   Overcast
11:15 AM 46.4 °F 43.5 °F 28.4 °F 50% 30.11 in 10.0 mi East 5.8 mph 9.2 mph N/A   Scattered Clouds
11:35 AM 46.4 °F 41.9 °F 28.4 °F 50% 30.11 in 10.0 mi East 9.2 mph - N/A   Mostly Cloudy
11:55 AM 46.4 °F 42.4 °F 28.4 °F 50% 30.10 in 10.0 mi East 8.1 mph - N/A   Mostly Cloudy
12:15 PM 48.2 °F - 28.4 °F 46% 30.10 in 10.0 mi East 8.1 mph - N/A   Mostly Cloudy
12:35 PM 50.0 °F - 30.2 °F 47% 30.10 in 10.0 mi East 8.1 mph - N/A   Scattered Clouds
12:55 PM 51.8 °F - 26.6 °F 38% 30.09 in 10.0 mi East 6.9 mph - N/A   Mostly Cloudy
1:15 PM 51.8 °F - 26.6 °F 38% 30.08 in 10.0 mi East 9.2 mph - N/A   Mostly Cloudy
1:35 PM 51.8 °F - 26.6 °F 38% 30.07 in 10.0 mi East 8.1 mph - N/A   Mostly Cloudy
1:55 PM 51.8 °F - 24.8 °F 35% 30.07 in 10.0 mi ESE 8.1 mph - N/A   Scattered Clouds
2:15 PM 51.8 °F - 21.2 °F 30% 30.06 in 10.0 mi East 8.1 mph - N/A   Scattered Clouds
2:35 PM 53.6 °F - 21.2 °F 28% 30.05 in 10.0 mi East 9.2 mph - N/A   Clear
2:55 PM 53.6 °F - 23.0 °F 30% 30.04 in 10.0 mi East 9.2 mph - N/A   Clear
3:15 PM 55.4 °F - 19.4 °F 25% 30.04 in 10.0 mi ENE 5.8 mph - N/A   Clear
3:35 PM 55.4 °F - 21.2 °F 26% 30.05 in 10.0 mi ENE 6.9 mph - N/A   Clear
3:55 PM 55.4 °F - 21.2 °F 26% 30.05 in 10.0 mi NE 4.6 mph - N/A   Clear
4:15 PM 55.4 °F - 19.4 °F 25% 30.04 in 10.0 mi ENE 4.6 mph - N/A   Clear
4:35 PM 55.4 °F - 19.4 °F 25% 30.04 in 10.0 mi NE 5.8 mph - N/A   Mostly Cloudy
4:55 PM 55.4 °F - 21.2 °F 26% 30.04 in 10.0 mi ENE 4.6 mph - N/A   Overcast
5:15 PM 55.4 °F - 17.6 °F 23% 30.03 in 10.0 mi ENE 3.5 mph - N/A   Mostly Cloudy
5:35 PM 53.6 °F - 21.2 °F 28% 30.03 in 10.0 mi NNE 4.6 mph - N/A   Scattered Clouds
5:55 PM 51.8 °F - 21.2 °F 30% 30.03 in 10.0 mi NNE 3.5 mph - N/A   Scattered Clouds
6:15 PM 50.0 °F - 23.0 °F 35% 30.03 in 10.0 mi Calm Calm - N/A   Scattered Clouds
6:35 PM 46.4 °F - 30.2 °F 53% 30.04 in 10.0 mi Calm Calm - N/A   Mostly Cloudy
6:55 PM 50.0 °F - 24.8 °F 37% 30.04 in 10.0 mi NNW 3.5 mph - N/A   Overcast
7:15 PM 48.2 °F - 30.2 °F 50% 30.04 in 10.0 mi Calm Calm - N/A   Overcast
7:35 PM 48.2 °F - 30.2 °F 50% 30.04 in 10.0 mi NNE 3.5 mph - N/A   Overcast
7:55 PM 48.2 °F - 30.2 °F 50% 30.05 in 10.0 mi Calm Calm - N/A   Overcast
8:15 PM 46.4 °F - 30.2 °F 53% 30.05 in 10.0 mi Calm Calm - N/A   Overcast
8:35 PM 46.4 °F - 30.2 °F 53% 30.05 in 10.0 mi Calm Calm - N/A   Overcast
8:55 PM 46.4 °F - 32.0 °F 57% 30.05 in 10.0 mi Calm Calm - N/A   Overcast
9:15 PM 46.4 °F 45.2 °F 28.4 °F 50% 30.05 in 10.0 mi North 3.5 mph - N/A   Overcast
9:35 PM 44.6 °F 43.1 °F 30.2 °F 57% 30.05 in 10.0 mi North 3.5 mph - N/A   Mostly Cloudy
9:55 PM 42.8 °F - 30.2 °F 61% 30.05 in 10.0 mi Calm Calm - N/A   Mostly Cloudy
10:15 PM 42.8 °F - 30.2 °F 61% 30.04 in 10.0 mi Calm Calm - N/A   Mostly Cloudy
10:35 PM 42.8 °F - 30.2 °F 61% 30.05 in 10.0 mi Calm Calm - N/A   Mostly Cloudy
10:55 PM 41.0 °F 39.0 °F 30.2 °F 65% 30.05 in 10.0 mi North 3.5 mph - N/A   Scattered Clouds
11:15 PM 39.2 °F 37.0 °F 30.2 °F 70% 30.05 in 10.0 mi North 3.5 mph - N/A   Clear
11:35 PM 39.2 °F - 28.4 °F 65% 30.05 in 10.0 mi Calm Calm - N/A   Clear
11:55 PM 39.2 °F 37.0 °F 28.4 °F 65% 30.05 in 10.0 mi North 3.5 mph - N/A   Clear